CYKO

Akulivik Airport

ICAO Code CYKO
IATA Code AKV
Name Akulivik Airport
Location Akulivik, Quebec, CA
Elevation 76 Feet / 23.2 Meters
Latitude 60.81861111
Longitude -78.14861111
METAR CYKO 012100Z 31014KT 15SM BKN050 09/06 A2974 RMK SC7 LST/OBS NXT/OBS 02/1200Z SLP073
Extra information Display Charts and CFS
Display NOTAMS
Runway Length Width Surface Elevation
08 3521 ft 100 ft GVL 42 ft
26 3521 ft 100 ft GVL 76 ft